Weather in Lazarev

Russia / Khabarovsk Krai     52°12′37″N   141°30′32″E
temp.,
°C
wind,
m/s
gust,
m/s
humid.,
%
clouds,
%
prec.,
mm/h
press.,
hPa
HPBL,
m
28 july, wed
wed2801:00+16s4510098 0.0 100546
04:00+16s45100100 0.0 100567
07:00+16s5699100 0.0 100474
10:00+16s5699100 0.0 100473
13:00+17s5696100 0.1 1004140
16:00+16s789897 0.1 1002101
19:00+16s6798100 0.2 100279
22:00+16s67100100 0.8 100392
29 july, thu
thu2901:00+16s68100100 0.1 1002111
04:00+16s6899100 0.3 1001122
07:00+16s67100100 0.0 1001113
10:00+17s6798100 0.0 1000113
13:00+17sse6797100 0.1 1000133
16:00+17s4499100 3.6 99962
19:00+16se12100100 1.2 100138
22:00+15n4699100 1.3 1002146
30 july, fri
fri3001:00+15n71099100 0.5 1002260
04:00+14n91198100 1.9 1002360
07:00+14n91198100 6.2 1002441
10:00+14n101198100 15.5 1002456
13:00+14n101197100 4.0 1003469
16:00+14n101297100 6.6 1005510
19:00+14n91097100 3.1 1007507
22:00+13nne8995100 4.4 1009535
31 july, sat
sat3101:00+13nne6793100 0.7 1011540
04:00+12nne8891100 1.2 1012630
07:00+12ne7888100 0.6 1014584
10:00+12nne7785100 0.9 1015685
13:00+12nne7782100 0.3 1016682
16:00+13ne6675100 0.3 1016717
19:00+13ne677399 0.0 1017572
22:00+12ene5775100 0.0 1017443
1 august, sun
sun101:00+12ne5778100 0.1 1017430
04:00+12ene5778100 0.1 1017477
07:00+12ene5781100 0.3 1018504
10:00+12e4578100 0.8 1017521
13:00+13e3374100 0.0 1017535
16:00+14e2372100 0.0 1017607
19:00+14e1173100 0.0 1017404
22:00+13sse2286100 0.5 1016203